When you browse on this site, cookies collect data to enhance your experience and personalize the content and advertising you see.
Visit our Privacy Policy to learn more. By continuing to use the site, you agree to this use of cookies and data.
  • Em Portugal
  • Lista de países
  • Para 7 dias
  • Temperatura da água
  • Mapas de satélite
  • Mapa do tempo
  • Widgets de tempo
  • user-avatar
    Iniciar Sessão

    Previsão horária em Santo Vlas

    Hoje, 26 Maio, Domingo

    Tempo Temperatura Precipitação Vento Pressão Humidade
    00:00 +16°C° 0 mm 3 m/s 754 mmHg 88%
    01:00 +14°C° 0 mm 3 m/s 754 mmHg 88%
    02:00 +14°C° 0 mm 3 m/s 754 mmHg 89%
    03:00 +14°C° 0 mm 3 m/s 754 mmHg 89%
    04:00 +14°C° 0 mm 3 m/s 754 mmHg 88%
    05:00 +14°C° 0 mm 3 m/s 754 mmHg 88%
    06:00 +17°C° 0 mm 3 m/s 755 mmHg 83%
    07:00 +18°C° 0 mm 3 m/s 755 mmHg 78%
    08:00 +20°C° 0 mm 2 m/s 755 mmHg 73%
    09:00 +23°C° 0 mm 2 m/s 755 mmHg 68%
    10:00 +25°C° 0 mm 1 m/s 756 mmHg 62%
    11:00 +25°C° 0 mm 0 m/s 756 mmHg 57%
    12:00 +27°C° 0 mm 1 m/s 756 mmHg 57%
    13:00 +27°C° 0 mm 2 m/s 756 mmHg 57%
    14:00 +27°C° 0 mm 3 m/s 756 mmHg 57%
    15:00 +26°C° 0 mm 4 m/s 756 mmHg 60%
    16:00 +25°C° 0 mm 4 m/s 755 mmHg 63%
    17:00 +23°C° 0 mm 4 m/s 755 mmHg 67%
    18:00 +22°C° 0 mm 4 m/s 755 mmHg 71%
    19:00 +20°C° 0 mm 3 m/s 755 mmHg 76%
    20:00 +18°C° 0 mm 3 m/s 755 mmHg 80%
    21:00 +18°C° 0 mm 2 m/s 756 mmHg 80%
    22:00 +18°C° 0 mm 2 m/s 756 mmHg 80%
    23:00 +18°C° 0 mm 2 m/s 756 mmHg 81%

    Amanhã, 27 Maio, Segunda-feira

    Tempo Temperatura Precipitação Vento Pressão Humidade
    00:00 +17°C° 0 mm 2 m/s 756 mmHg 83%
    01:00 +18°C° 0 mm 1 m/s 756 mmHg 85%
    02:00 +18°C° 0 mm 1 m/s 756 mmHg 87%
    03:00 +18°C° 0 mm 1 m/s 756 mmHg 87%
    04:00 +18°C° 0 mm 1 m/s 756 mmHg 88%
    05:00 +16°C° 0 mm 1 m/s 756 mmHg 89%
    06:00 +19°C° 0 mm 1 m/s 756 mmHg 83%
    07:00 +21°C° 0 mm 1 m/s 756 mmHg 78%
    08:00 +23°C° 0 mm 1 m/s 756 mmHg 72%
    09:00 +24°C° 0 mm 2 m/s 756 mmHg 67%
    10:00 +25°C° 0 mm 3 m/s 756 mmHg 63%
    11:00 +25°C° 0 mm 4 m/s 756 mmHg 58%
    12:00 +25°C° 0 mm 4 m/s 756 mmHg 59%
    13:00 +25°C° 0 mm 4 m/s 756 mmHg 60%
    14:00 +25°C° 0 mm 5 m/s 755 mmHg 60%
    15:00 +23°C° 0 mm 5 m/s 755 mmHg 64%
    16:00 +22°C° 0 mm 4 m/s 755 mmHg 67%
    17:00 +22°C° 0 mm 4 m/s 755 mmHg 70%
    18:00 +20°C° 0 mm 4 m/s 755 mmHg 77%
    19:00 +19°C° 0 mm 3 m/s 755 mmHg 85%
    20:00 +17°C° 0 mm 3 m/s 755 mmHg 92%
    21:00 +17°C° 0 mm 2 m/s 755 mmHg 93%
    22:00 +17°C° 0 mm 2 m/s 755 mmHg 93%
    23:00 +16°C° 0 mm 2 m/s 755 mmHg 94%

    Depois de amanhã, 28 Maio, Terça-feira

    Tempo Temperatura Precipitação Vento Pressão Humidade
    00:00 +16°C° 0 mm 2 m/s 755 mmHg 94%
    01:00 +16°C° 0 mm 2 m/s 754 mmHg 94%
    02:00 +16°C° 0 mm 2 m/s 754 mmHg 94%
    03:00 +16°C° 0 mm 2 m/s 753 mmHg 94%
    04:00 +16°C° 0 mm 2 m/s 753 mmHg 94%
    05:00 +16°C° 0 mm 2 m/s 753 mmHg 95%
    06:00 +17°C° 0 mm 2 m/s 753 mmHg 89%
    07:00 +19°C° 0 mm 2 m/s 753 mmHg 83%
    08:00 +21°C° 0 mm 2 m/s 753 mmHg 77%
    09:00 +23°C° 0 mm 2 m/s 752 mmHg 72%
    10:00 +24°C° 0 mm 3 m/s 752 mmHg 68%
    11:00 +25°C° 0 mm 3 m/s 752 mmHg 63%
    12:00 +26°C° 0 mm 3 m/s 752 mmHg 63%
    13:00 +26°C° 0 mm 4 m/s 751 mmHg 64%
    14:00 +26°C° 0 mm 4 m/s 751 mmHg 64%
    15:00 +25°C° 0 mm 4 m/s 751 mmHg 67%
    16:00 +25°C° 0 mm 4 m/s 750 mmHg 70%
    17:00 +23°C° 0 mm 4 m/s 750 mmHg 72%
    18:00 +22°C° 0 mm 4 m/s 750 mmHg 77%
    19:00 +21°C° 0 mm 3 m/s 750 mmHg 81%
    20:00 +19°C° 0 mm 3 m/s 750 mmHg 86%
    21:00 +19°C° 0 mm 3 m/s 750 mmHg 85%
    22:00 +19°C° 0 mm 3 m/s 750 mmHg 84%
    23:00 +19°C° 0 mm 3 m/s 750 mmHg 83%

    29 Maio, Quarta-feira

    Tempo Temperatura Precipitação Vento Pressão Humidade
    00:00 +18°C° 0 mm 3 m/s 750 mmHg 78%
    01:00 +18°C° 0 mm 3 m/s 750 mmHg 73%
    02:00 +17°C° 0 mm 3 m/s 750 mmHg 69%
    03:00 +16°C° 0 mm 3 m/s 750 mmHg 74%
    04:00 +16°C° 0 mm 3 m/s 750 mmHg 79%
    05:00 +16°C° 0 mm 3 m/s 750 mmHg 84%
    06:00 +18°C° 0 mm 3 m/s 750 mmHg 79%
    07:00 +20°C° 0 mm 3 m/s 751 mmHg 74%
    08:00 +22°C° 0 mm 3 m/s 751 mmHg 68%
    09:00 +25°C° 0 mm 3 m/s 751 mmHg 63%
    10:00 +27°C° 0 mm 2 m/s 751 mmHg 57%
    11:00 +29°C° 0 mm 2 m/s 751 mmHg 52%
    12:00 +29°C° 0 mm 2 m/s 751 mmHg 49%
    13:00 +30°C° 0 mm 2 m/s 751 mmHg 47%
    14:00 +31°C° 0 mm 3 m/s 751 mmHg 45%
    15:00 +30°C° 0 mm 3 m/s 751 mmHg 49%
    16:00 +29°C° 0 mm 3 m/s 751 mmHg 52%
    17:00 +29°C° 0 mm 3 m/s 751 mmHg 55%
    18:00 +27°C° 0 mm 3 m/s 751 mmHg 60%
    19:00 +26°C° 0 mm 3 m/s 751 mmHg 64%
    20:00 +24°C° 0 mm 3 m/s 751 mmHg 68%
    21:00 +22°C° 0 mm 3 m/s 751 mmHg 71%
    22:00 +21°C° 0 mm 3 m/s 752 mmHg 73%
    23:00 +20°C° 0 mm 3 m/s 752 mmHg 75%

    30 Maio, Quinta-feira

    Tempo Temperatura Precipitação Vento Pressão Humidade
    00:00 +20°C° 0 mm 3 m/s 752 mmHg 76%
    01:00 +20°C° 0 mm 2 m/s 752 mmHg 77%
    02:00 +19°C° 0 mm 2 m/s 752 mmHg 77%
    03:00 +19°C° 0 mm 2 m/s 752 mmHg 80%
    04:00 +19°C° 0 mm 2 m/s 752 mmHg 82%
    05:00 +18°C° 0 mm 2 m/s 752 mmHg 84%
    06:00 +20°C° 0 mm 2 m/s 752 mmHg 79%
    07:00 +23°C° 0 mm 2 m/s 753 mmHg 74%
    08:00 +25°C° 0 mm 2 m/s 753 mmHg 69%
    09:00 +26°C° 0 mm 2 m/s 753 mmHg 64%
    10:00 +28°C° 0 mm 1 m/s 753 mmHg 59%
    11:00 +29°C° 0 mm 1 m/s 753 mmHg 54%
    12:00 +30°C° 0.2 mm 1 m/s 753 mmHg 53%
    13:00 +30°C° 0.2 mm 1 m/s 753 mmHg 53%
    14:00 +30°C° 0.2 mm 2 m/s 753 mmHg 52%
    15:00 +30°C° 0.2 mm 2 m/s 753 mmHg 54%
    16:00 +29°C° 0.2 mm 2 m/s 752 mmHg 57%
    17:00 +29°C° 0.2 mm 2 m/s 752 mmHg 59%
    18:00 +27°C° 0.1 mm 1 m/s 753 mmHg 64%
    19:00 +25°C° 0.1 mm 1 m/s 753 mmHg 69%
    20:00 +24°C° 0.1 mm 1 m/s 753 mmHg 74%
    21:00 +23°C° 0.1 mm 1 m/s 753 mmHg 76%
    22:00 +23°C° 0.1 mm 1 m/s 753 mmHg 77%
    23:00 +22°C° 0.1 mm 1 m/s 753 mmHg 79%

    31 Maio, Sexta-feira

    Tempo Temperatura Precipitação Vento Pressão Humidade
    00:00 +21°C° 0 mm 2 m/s 753 mmHg 80%
    01:00 +20°C° 0 mm 2 m/s 753 mmHg 81%
    02:00 +20°C° 0 mm 3 m/s 753 mmHg 82%
    03:00 +19°C° 0.8 mm 4 m/s 754 mmHg 85%
    04:00 +17°C° 0.8 mm 5 m/s 754 mmHg 88%
    05:00 +17°C° 0.8 mm 6 m/s 754 mmHg 92%
    06:00 +17°C° 0.7 mm 6 m/s 754 mmHg 90%
    07:00 +19°C° 0.7 mm 6 m/s 755 mmHg 89%
    08:00 +20°C° 0.7 mm 7 m/s 755 mmHg 88%
    09:00 +21°C° 0.1 mm 6 m/s 755 mmHg 84%
    10:00 +22°C° 0.1 mm 6 m/s 755 mmHg 79%
    11:00 +23°C° 0.1 mm 6 m/s 755 mmHg 74%
    12:00 +22°C° 0.6 mm 6 m/s 755 mmHg 79%
    13:00 +21°C° 0.6 mm 6 m/s 755 mmHg 83%
    14:00 +20°C° 0.6 mm 6 m/s 755 mmHg 88%
    15:00 +19°C° 0.9 mm 6 m/s 755 mmHg 89%
    16:00 +19°C° 0.9 mm 6 m/s 755 mmHg 91%
    17:00 +17°C° 0.9 mm 7 m/s 755 mmHg 92%
    18:00 +17°C° 1.6 mm 7 m/s 755 mmHg 93%
    19:00 +17°C° 1.6 mm 7 m/s 755 mmHg 93%
    20:00 +16°C° 1.6 mm 7 m/s 755 mmHg 94%
    21:00 +16°C° 3.2 mm 7 m/s 755 mmHg 94%
    22:00 +16°C° 3.2 mm 7 m/s 755 mmHg 95%
    23:00 +16°C° 3.2 mm 6 m/s 755 mmHg 95%
    Mostrar mais